GW7108 Weather Reports


Display with metric or nautical units.
time (UTC)temp
F
wind
direction
speed
MPH
gust
MPH
rain 1hr
in
rain 24hr
in
rain mn
in
humidity
%
barometer
mb
20260503190003 64 17 7.0 16.0 0.00 0.00 0.00 54 1027.6
20260503185503 64 19 6.0 11.0 0.00 0.00 0.00 54 1027.3
20260503185024 64 20 7.0 14.0 0.00 0.00 0.00 53 1027.4
20260503184503 64 16 7.0 16.0 0.00 0.00 0.00 52 1027.3
20260503184003 64 13 8.0 16.0 0.00 0.00 0.00 52 1027.0
20260503183503 64 17 8.0 16.0 0.00 0.00 0.00 52 1027.0
20260503183003 65 17 7.0 12.0 0.00 0.00 0.00 54 1027.1
20260503182503 65 10 6.0 10.0 0.00 0.00 0.00 55 1027.0
20260503182024 65 7 6.0 12.0 0.00 0.00 0.00 55 1026.8
20260503181504 65 10 7.0 12.0 0.00 0.00 0.00 54 1027.2
20260503181003 65 19 7.0 16.0 0.00 0.00 0.00 54 1027.1
20260503180503 65 23 8.0 16.0 0.00 0.00 0.00 54 1027.0
20260503180003 65 22 8.0 15.0 0.00 0.00 0.00 54 1027.3
20260503175503 66 9 8.0 19.0 0.00 0.00 0.00 53 1027.2
20260503175024 67 346 8.0 19.0 0.00 0.00 0.00 49 1027.2
20260503174524 67 328 8.0 19.0 0.00 0.00 0.00 42 1027.1
20260503174003 68 323 8.0 19.0 0.00 0.00 0.00 43 1027.0
20260503173524 68 321 9.0 18.0 0.00 0.00 0.00 43 1027.0
20260503173003 67 323 9.0 19.0 0.00 0.00 0.00 43 1027.0
20260503172503 68 333 8.0 19.0 0.00 0.00 0.00 43 1027.0
20260503172024 67 337 10.0 19.0 0.00 0.00 0.00 42 1027.0
20260503171503 68 336 10.0 19.0 0.00 0.00 0.00 42 1026.8
20260503171003 68 337 9.0 18.0 0.00 0.00 0.00 42 1026.9
20260503170503 69 330 9.0 19.0 0.00 0.00 0.00 41 1027.0
20260503151003 68 353 11.0 21.0 0.00 0.06 0.00 54 1027.0
20260503150503 70 315 12.0 26.0 0.00 0.06 0.00 43 1027.1
20260503131003 65 355 7.0 13.0 0.00 0.06 0.00 63 1028.4
20260503130503 66 360 7.0 15.0 0.00 0.06 0.00 63 1028.1
20260503110503 65 21 9.0 15.0 0.00 0.06 0.00 63 1029.1
20260503090504 62 28 5.0 9.0 0.00 0.06 0.00 74 1029.5
20260503081524 61 16 7.0 12.0 0.00 0.06 0.00 75 1029.8
20260503081003 61 17 6.0 12.0 0.00 0.06 0.00 76 1029.8
20260503080503 61 16 6.0 12.0 0.00 0.06 0.00 77 1029.5
20260503072503 59 25 4.0 9.0 0.00 0.06 0.00 77 1029.5
20260503072003 59 60 2.0 6.0 0.00 0.06 0.00 78 1029.4
20260503071503 59 68 2.0 4.0 0.00 0.06 0.00 78 1029.3
20260503071003 58 8 2.0 5.0 0.00 0.06 0.00 78 1029.3
20260503070504 59 349 2.0 5.0 0.00 0.06 0.00 78 1029.5
20260503055003 55 16 3.0 7.0 0.00 0.06 0.00 87 1029.5
20260503054503 55 22 4.0 10.0 0.00 0.06 0.00 86 1029.5
20260503054003 55 15 5.0 10.0 0.00 0.06 0.00 87 1029.0
20260503053524 55 1 4.0 8.0 0.00 0.06 0.00 87 1029.3
20260503053003 55 6 5.0 10.0 0.00 0.06 0.00 87 1029.3
20260503052524 56 18 5.0 11.0 0.00 0.06 0.00 86 1029.3
20260503052003 56 18 7.0 14.0 0.00 0.06 0.00 87 1029.1
20260503051503 56 15 7.0 14.0 0.00 0.06 0.00 87 1029.1
20260503051003 56 17 7.0 14.0 0.00 0.06 0.00 87 1029.0
20260503050504 56 19 7.0 14.0 0.00 0.06 0.00 86 1029.6
20260503050003 57 360 7.0 18.0 0.00 0.06 0.00 84 1029.3
20260503045503 58 323 7.0 18.0 0.00 0.06 0.00 80 1029.6
20260503045003 58 304 6.0 12.0 0.00 0.06 0.00 79 1029.4
20260503044503 58 306 5.0 12.0 0.00 0.06 0.00 79 1029.3
20260503044003 58 321 4.0 8.0 0.00 0.06 0.00 79 1029.3
20260503043503 58 318 3.0 9.0 0.00 0.06 0.00 80 1029.3
20260503043024 58 292 3.0 9.0 0.00 0.06 0.00 80 1029.4
20260503042504 58 277 5.0 13.0 0.00 0.06 0.00 79 1028.9
20260503042025 58 280 7.0 13.0 0.00 0.06 0.00 79 1029.0
20260503041503 58 282 7.0 14.0 0.00 0.06 0.00 80 1029.1
20260503041003 57 270 5.0 14.0 0.00 0.06 0.00 82 1029.0
20260503040503 57 232 3.0 6.0 0.00 0.06 0.00 81 1028.9
20260503040003 57 219 4.0 7.0 0.00 0.06 0.00 82 1028.9
20260503035503 57 244 3.0 7.0 0.00 0.06 0.00 82 1029.1
20260503035003 57 261 3.0 7.0 0.00 0.06 0.00 82 1029.0
20260503034503 57 255 4.0 9.0 0.00 0.06 0.00 82 1029.3
20260503034024 57 269 4.0 9.0 0.00 0.06 0.00 82 1029.1
20260503033503 57 260 3.0 6.0 0.00 0.06 0.00 82 1028.9
20260503033003 57 241 3.0 6.0 0.00 0.06 0.00 82 1029.4
20260503032503 57 250 3.0 6.0 0.00 0.06 0.00 83 1029.0
20260503032003 57 234 4.0 8.0 0.00 0.06 0.00 83 1029.1
20260503031503 57 227 4.0 8.0 0.00 0.06 0.00 83 1029.4
20260503031003 57 243 3.0 6.0 0.00 0.06 0.00 82 1029.3
20260503030503 57 234 3.0 7.0 0.00 0.06 0.00 81 1029.4
20260503030003 57 220 4.0 7.0 0.00 0.06 0.00 81 1029.3
20260503025503 58 217 2.0 6.0 0.00 0.06 0.00 79 1029.3
20260503025003 58 198 1.0 4.0 0.00 0.06 0.00 78 1029.3
20260503024524 58 180 1.0 3.0 0.00 0.06 0.00 78 1029.6
20260503024003 58 161 1.0 3.0 0.00 0.06 0.00 78 1029.6
20260503023503 58 127 0.0 2.0 0.00 0.06 0.00 78 1029.6
20260503023003 58 318 1.0 2.0 0.00 0.06 0.00 78 1029.5
20260503022503 58 314 1.0 3.0 0.00 0.06 0.00 78 1029.5
20260503022003 57 300 0.0 3.0 0.00 0.06 0.00 79 1029.7
20260503021503 57 241 0.0 3.0 0.00 0.06 0.00 80 1029.5
20260503021003 57 205 1.0 3.0 0.00 0.06 0.00 79 1029.8
20260503020503 58 182 2.0 3.0 0.00 0.06 0.00 79 1029.8
20260503020003 58 167 1.0 2.0 0.00 0.06 0.00 78 1029.7
20260503015503 58 284 1.0 4.0 0.00 0.06 0.00 77 1029.7
20260503015003 58 292 2.0 4.0 0.00 0.06 0.00 76 1029.7
20260503014524 58 299 2.0 4.0 0.00 0.06 0.00 77 1029.7
20260503014003 58 102 1.0 3.0 0.00 0.06 0.00 78 1029.8
20260503013503 58 85 1.0 4.0 0.00 0.06 0.00 78 1029.9
20260503013003 58 33 1.0 4.0 0.00 0.06 0.00 78 1030.0
20260503012503 58 3 1.0 2.0 0.00 0.06 0.00 78 1030.0
20260503012003 58 14 1.0 4.0 0.00 0.06 0.00 77 1030.1
20260503011503 59 8 2.0 4.0 0.00 0.06 0.00 77 1030.1
20260503011003 59 349 2.0 4.0 0.00 0.06 0.00 77 1030.0
20260503010503 59 336 2.0 4.0 0.00 0.06 0.00 77 1030.2
20260503010003 59 336 2.0 4.0 0.00 0.06 0.00 77 1029.9
20260503005503 59 333 2.0 4.0 0.00 0.06 0.00 77 1030.4
20260503005024 59 333 2.0 4.0 0.00 0.06 0.00 77 1030.1
20260503004503 59 340 2.0 5.0 0.00 0.06 0.00 78 1030.3
20260503004003 59 354 1.0 5.0 0.00 0.06 0.00 78 1030.3
20260503003503 59 344 0.0 2.0 0.00 0.06 0.00 80 1030.2
20260503003003 59 205 0.0 2.0 0.00 0.06 0.00 80 1030.6
20260503002503 59 184 0.0 2.0 0.00 0.06 0.00 79 1030.4
20260503002003 59 204 0.0 2.0 0.00 0.06 0.00 79 1030.2
20260503001524 60 231 0.0 2.0 0.00 0.06 0.00 79 1030.3
20260503001003 60 289 0.0 2.0 0.00 0.06 0.00 79 1030.5
20260503000524 60 360 0.0 2.0 0.00 0.06 0.00 79 1030.4
20260503000003 60 19 0.0 2.0 0.00 0.06 0.00 79 1030.4
20260502235524 60 209 0.0 2.0 0.00 0.06 0.00 80 1030.4
20260502235003 60 257 1.0 3.0 0.00 0.06 0.00 80 1030.6
20260502234503 60 335 2.0 3.0 0.00 0.06 0.00 80 1030.6
20260502234025 60 339 2.0 4.0 0.00 0.06 0.00 80 1030.7
20260502233503 60 313 3.0 4.0 0.00 0.06 0.00 80 1031.0
20260502233003 60 302 3.0 4.0 0.00 0.06 0.00 80 1030.8
20260502232524 60 293 3.0 5.0 0.00 0.06 0.00 80 1031.1
20260502232003 60 287 3.0 5.0 0.00 0.06 0.00 80 1031.0
20260502231503 60 290 3.0 5.0 0.00 0.06 0.00 80 1031.1
20260502231003 60 292 3.0 4.0 0.00 0.06 0.00 79 1030.8
20260502230503 60 301 2.0 4.0 0.00 0.06 0.00 79 1030.7
20260502230003 60 337 2.0 4.0 0.00 0.06 0.00 78 1030.8
20260502225524 60 342 3.0 6.0 0.00 0.06 0.00 77 1030.8
20260502225024 60 326 3.0 6.0 0.00 0.06 0.00 77 1030.7
20260502224503 60 314 4.0 6.0 0.00 0.06 0.00 77 1031.1
20260502224003 60 308 4.0 8.0 0.00 0.06 0.00 77 1031.0
20260502223503 60 308 4.0 8.0 0.00 0.06 0.00 77 1030.7
20260502223003 60 308 4.0 8.0 0.00 0.06 0.00 77 1030.8
20260502222503 60 308 5.0 10.0 0.00 0.06 0.00 77 1030.8
20260502222003 61 301 6.0 12.0 0.00 0.06 0.00 76 1030.6
20260502221503 60 297 6.0 12.0 0.00 0.06 0.00 76 1030.8
20260502221003 60 294 5.0 11.0 0.00 0.06 0.00 77 1030.8
20260502220025 60 283 6.0 11.0 0.00 0.06 0.00 78 1031.1
20260502215503 60 281 6.0 10.0 0.00 0.06 0.06 79 1031.1
20260502215003 60 290 6.0 11.0 0.00 0.06 0.06 78 1031.2
20260502214503 60 292 6.0 11.0 0.00 0.06 0.06 78 1031.0
20260502214024 60 294 6.0 11.0 0.00 0.06 0.06 78 1031.3
20260502213503 60 297 6.0 10.0 0.00 0.06 0.06 79 1031.2
20260502213024 60 299 5.0 10.0 0.00 0.06 0.06 79 1031.0
20260502212524 60 296 6.0 12.0 0.00 0.06 0.06 79 1031.1
20260502212004 60 294 7.0 12.0 0.00 0.06 0.06 79 1031.2
20260502211503 60 293 6.0 13.0 0.00 0.06 0.06 79 1031.2
20260502211003 61 292 6.0 13.0 0.00 0.06 0.06 79 1031.2
20260502210503 60 290 7.0 12.0 0.00 0.06 0.06 79 1031.3
20260502210003 60 286 6.0 12.0 0.00 0.06 0.06 80 1031.3
20260502205503 60 280 6.0 11.0 0.00 0.06 0.06 80 1031.1
20260502205003 61 281 6.0 11.0 0.00 0.06 0.06 80 1031.2
20260502204503 61 289 7.0 12.0 0.00 0.06 0.06 78 1031.1
20260502204003 61 293 7.0 12.0 0.00 0.06 0.06 78 1031.1
20260502203503 62 290 8.0 17.0 0.00 0.06 0.06 77 1031.0
20260502203003 62 295 6.0 17.0 0.00 0.06 0.06 76 1031.2
20260502202503 61 313 5.0 7.0 0.00 0.06 0.06 76 1030.8
20260502202003 61 319 5.0 6.0 0.00 0.06 0.06 75 1030.7
20260502201504 61 326 4.0 6.0 0.00 0.06 0.06 76 1030.5
20260502201003 61 331 3.0 5.0 0.00 0.06 0.06 77 1031.1
20260502200503 61 322 2.0 5.0 0.00 0.06 0.06 77 1030.8
20260502200003 61 326 2.0 4.0 0.00 0.06 0.06 77 1030.7
20260502195503 61 326 3.0 5.0 0.00 0.06 0.06 76 1030.6
20260502195003 61 311 3.0 6.0 0.00 0.06 0.06 76 1030.5
20260502194503 61 317 3.0 6.0 0.00 0.06 0.06 76 1030.7
20260502194024 62 336 3.0 4.0 0.00 0.06 0.06 75 1030.7
20260502193503 62 346 3.0 5.0 0.00 0.06 0.06 74 1030.6
20260502193003 62 358 3.0 5.0 0.00 0.06 0.06 73 1030.4
20260502192503 63 1 3.0 6.0 0.00 0.06 0.06 73 1030.5
20260502192003 63 354 3.0 8.0 0.00 0.06 0.06 73 1030.4
20260502191503 63 360 4.0 8.0 0.00 0.06 0.06 72 1030.5
20260502191024 64 2 5.0 11.0 0.00 0.06 0.06 70 1030.3
20260502190503 64 349 5.0 11.0 0.00 0.06 0.06 70 1030.1